Regional Weather Roundup
Issued by NWS

Home | Current Version | Previous Version | Graphics & Text | Print | Product List | Glossary On
Versions: 1 2 3 4 5 6 7 8 9 10 11 12 13 14 15 16 17 18 19 20 21 22 23 24 25 26 27 28 29 30 31 32 33 34 35 36 37 38 39 40 41 42 43 44 45 46 47 48 49 50
000
ASUS43 KLOT 301121
RWRIL

ILLINOIS REGIONAL WEATHER ROUNDUP
NATIONAL WEATHER SERVICE CHICAGO/ROMEOVILLE IL
600 AM CDT SUN AUG 30 2015

NOTE: "FAIR" INDICATES FEW OR NO CLOUDS BELOW 12,000 FEET WITH NO
SIGNIFICANT WEATHER AND/OR OBSTRUCTIONS TO VISIBILITY.

* THESE STATIONS ARE NOT UNDER NWS QUALITY CONTROL. THEY ALSO MAY NOT
  REPORT WEATHER SUCH AS PRECIPITATION OR FOG.

ILZ001-002-007-009-015-016-024-301200-
NORTHWEST ILLINOIS

CITY           SKY/WX    TMP DP  RH WIND       PRES   REMARKS
MOLINE         FOG       62  60  93 CALM      30.05R VSB 1/4
STERLING*      CLOUDY   N/A N/A N/A N3        30.03S
SAVANNA*       CLEAR     63  60  90 N5        30.04S
$$

ILZ003-004-008-010-011-017-018-301200-
NORTH CENTRAL ILLINOIS

CITY           SKY/WX    TMP DP  RH WIND       PRES   REMARKS
ROCKFORD       CLOUDY    66  62  87 NE3       30.06S
FREEPORT*      CLOUDY    63  62  98 CALM      30.07S FOG
ROCHELLE*      CLOUDY    64  63  97 CALM      30.06R FOG
DE KALB*       CLOUDY    64  63  98 CALM      30.06S FOG
PERU*          FOG       65  64  98 NE6       30.05R VSB 1/4
$$

ILZ005-006-012>014-019>023-301200-
NORTHEAST ILLINOIS

CITY           SKY/WX    TMP DP  RH WIND       PRES   REMARKS
CHICAGO-OHARE  CLOUDY    64  63  96 N5        30.04R FOG
CHICAGO-MIDWAY CLOUDY    67  63  87 N6        30.04R FOG
AURORA         CLOUDY    64  62  93 CALM      30.05S FOG
LANSING*       CLOUDY    64  64  97 NE6       30.05R FOG
JOLIET*        FOG       65  65  99 N5        30.04R VSB 1
WAUKEGAN       FOG       63  63 100 NW3       30.04S VSB 3/4
DUPAGE AIRPORT CLOUDY    64  62  93 N6        30.04S FOG
KANKAKEE*      CLOUDY    67  66  97 CALM      30.04R FOG
WHEELING       CLOUDY    65  63  93 CALM      30.05R FOG
MORRIS*        CLOUDY    65  64  97 CALM      30.04R FOG
ROMEOVILLE*    CLOUDY    64  64 100 N6        30.04S FOG
NORTHERLY ISL    N/A     63  61  93 N6          N/A
$$

LMZ740>746-301200-
SOUTHERN LAKE MICHIGAN

STATION/POSITION SKY/WX   TEMP    WIND        PRES    VSBY  WAVE
                          AIR SEA DIR/SP/G                  HT/PER
                          (F)     (DEG/KT/KT) (MB)    (MI)  (FT/S)
SOUTHERN BUOY              67 68  360/ 12/ 12 1016.3R         1
WILMETTE HARBOR            60 58  150/  4/  6   N/A           1/ 3
HARRISON CRIB              63     330/  9/ 10   N/A
BURNHAM HARBOR             63     350/  3/  6   N/A
BURNS HARBOR               67     320/  5/  8 1017.3R
MICHIGAN CITY              68     330/  6/  6   N/A
MICHIGAN CITY 6N           68 70  330/  8/ 10   N/A           1/ 3
ST. JOSEPH                 68 70  360/  8/  8   N/A           1
$$

ILZ025>027-034>036-040-047-049-050-058-095>099-301200-
WEST-CENTRAL ILLINOIS

CITY           SKY/WX    TMP DP  RH WIND       PRES   REMARKS
QUINCY         FOG       68  67  96 NE5       30.02R VSB 1/4
GALESBURG*     DRZL/FOG  64  63  99 CALM      30.04S VSB<1/4
MACOMB*        CLOUDY    65  65 100 CALM      30.05S FOG
JACKSONVILLE*  PTCLDY    67  66  96 CALM      30.02R FOG
PITTSFIELD*    FOG       69  67  96 N3        30.03R VSB<1/4
$$

ILZ028>032-037-038-041>044-048-051>054-059>061-301200-
CENTRAL ILLINOIS

CITY           SKY/WX    TMP DP  RH WIND       PRES   REMARKS
PONTIAC        FOG       68  68 100 NE3       30.04R VSB 3/4
BLOOMINGTON    CLOUDY    68  68 100 N3        30.04R FOG
DECATUR        CLOUDY    69  66  90 S3        30.03R
PEORIA         MOCLDY    68  65  90 NE3       30.03R FOG
LACON*         FOG       65  64  97 CALM      30.03R VSB 1/4
LINCOLN*       MOCLDY    67  65  93 CALM      30.02R FOG
SPRINGFIELD    PTCLDY    67  64  90 CALM      30.02R
TAYLORVILLE    CLEAR     64  63  94 S3        30.02S FOG
$$

ILZ033-039-045-046-055>057-062-063-301200-
EAST-CENTRAL ILLINOIS

CITY           SKY/WX    TMP DP  RH WIND       PRES   REMARKS
CHAMPAIGN      LGT RAIN  63  62  97 SE3       30.04R VSB 1
RANTOUL*       CLOUDY    67  67  99 CALM      30.03S FOG
MATTOON        MOCLDY    67  63  87 S5        30.03R
PARIS*         MOCLDY    63  62  98 CALM      30.05R
$$

ILZ079-100>102-301200-
SOUTHWEST ILLINOIS

CITY           SKY/WX    TMP DP  RH WIND       PRES   REMARKS
ALTON          CLOUDY    67  65  96 CALM      30.02S
BELLEVILLE     CLOUDY    66  66 100 E2        30.01S FOG
CAHOKIA*       PTCLDY    67  64  90 CALM      30.01S
SPARTA*        PTCLDY    66  65  97 CALM      30.04R
$$

ILZ064>066-069>071-074>076-080>082-084>086-088>090-092>094-301200-
SOUTH-CENTRAL ILLINOIS

CITY           SKY/WX    TMP DP  RH WIND       PRES   REMARKS
CARBONDALE     MOCLDY    69  67  93 CALM      30.03S
CAIRO*         LGT RAIN  71  71 100 SE5       30.04S
EFFINGHAM*     MOCLDY    65  63  91 CALM      30.05R
MARION         CLOUDY    72  68  88 SE3       30.04S
MT. VERNON     CLOUDY    66  63  88 CALM      30.05R
SALEM*         PTCLDY    65  63  93 CALM      30.03S
METROPOLIS*    CLOUDY    70  70  99 CALM      30.06R
$$

ILZ067-068-072-073-078-083-087-091-301200-
SOUTHEAST ILLINOIS

CITY           SKY/WX    TMP DP  RH WIND       PRES   REMARKS
LAWRENCEVILLE  FOG       66  65  96 CALM      30.05R VSB 1/4
FLORA*         PTCLDY    64  63  96 CALM      30.05R
FAIRFIELD*     LGT RAIN  67  66  96 CALM      30.04R
HARRISBURG*    CLOUDY    70  69  96 CALM      30.05R
ROBINSON*      FOG       61  60  97 CALM      30.06R VSB 1/4
CARMI*         CLOUDY    67  67  99 CALM      30.03S FOG
$$

ABBREVIATIONS USED IN REMARKS
   TC - TEMPERATURE IN CELSIUS
  WCI - WIND CHILL INDEX
   HX - HEAT INDEX
  VSB - VISIBILITY
$$



USA.gov is the U.S. government's official web portal to all federal, state and local government web resources and services.